Regional Weather Roundup
Issued by NWS Cleveland, OH

Home | Current Version | Previous Version | Text Only | Print | Product List | Glossary On
Versions: 1 2 3 4 5 6 7 8 9 10 11 12 13 14 15 16 17 18 19 20 21 22 23 24 25 26 27 28 29 30 31 32 33 34 35 36 37 38 39 40 41 42 43 44 45 46 47 48 49 50
000
ASUS41 KCLE 301210
RWRCLE
OHIO REGIONAL WEATHER ROUNDUP
NATIONAL WEATHER SERVICE CLEVELAND, OH
800 AM EDT TUE SEP 30 2014

NOTE: "FAIR" INDICATES FEW OR NO CLOUDS BELOW 12,000 FEET WITH NO
SIGNIFICANT WEATHER AND/OR OBSTRUCTIONS TO VISIBILITY.

OHZ001>008-015>018-024>027-034-035-043-044-301300-
   NORTHWEST OHIO

CITY           SKY/WX    TMP DP  RH WIND       PRES   REMARKS
DEFIANCE       CLOUDY    53  50  89 N10       29.96R
FINDLAY        CLOUDY    59  56  89 N13       29.92R
TOLEDO EXPRESS CLOUDY    51  49  92 N9        29.96R
TOLEDO EXEC    CLOUDY    54  50  86 N10       29.96R
LIMA           FOG       61  59  93 NW9       29.94R VSB 3/4
$$

OHZ009>014-019>023-028>033-038-089-301300-
   NORTHEAST OHIO

CITY           SKY/WX    TMP DP  RH WIND       PRES   REMARKS
CLE-HOPKINS    HVY RAIN  62  60  93 N3        29.91F FOG
CLE-LAKEFRONT  LGT RAIN  64  62  93 NE7       29.88R
CUY CO. ARPT   LGT RAIN  61  61 100 W7        29.90R FOG
LORAIN-ELYRIA  LGT RAIN  65  61  87 NE3       29.90S FOG
ASHTABULA      CLOUDY    57  55  93 CALM      29.91R FOG
AKRON-CANTON   PTCLDY    57  54  88 W5        29.90R FOG
WOOSTER        MOCLDY    52  50  93 CALM      29.91S FOG
MANSFIELD      TSTM      57  55  93 W12       29.94R FOG
YOUNGSTOWN     MOCLDY    51  50  96 SE6       29.89S
$$

OHZ042-051>053-060>062-070>072-077>081-301300-
  SOUTHWEST OHIO

CITY           SKY/WX    TMP DP  RH WIND       PRES   REMARKS
CINC-COVINGTON PTCLDY    54  51  90 CALM      29.95R
CINC-LUNKEN    FOG       50  50 100 CALM      29.95S VSB<1/4
HAMILTON       CLEAR     50  49  96 CALM      29.96R
DAYTON         MOCLDY    60  52  74 NW7       29.95R
WRIGHT-PAT AFB PTCLDY    53  51  93 SW6       29.93F FOG
DAYTON GENERAL CLEAR     56  51  84 N3        29.94R
WILMINGTON     PTCLDY    52  48  86 SW5       29.94R
$$

OHZ036-037-039>041-045>050-054>059-063>069-073>076-082>088-301300-
  CENTRAL AND SOUTHEAST OHIO

CITY           SKY/WX    TMP DP  RH WIND       PRES   REMARKS
COLUMBUS       MOCLDY    55  49  80 CALM      29.92R
OSU AIRPORT    MOCLDY    55  51  86 N3        29.93R
BOLTON FIELD   PTCLDY    50  48  93 SW3       29.92S
RICKENBACK AFB MOCLDY    49  47  90 CALM      29.93R
NEWARK         PTCLDY    48  45  89 NW3       29.92R
MARION         RAIN      58  56  93 E3        29.92R FOG
LANCASTER      CLEAR     49  47  93 CALM      29.92R
ZANESVILLE     CLEAR     48  45  89 CALM      29.91S
NEW PHILLY     FOG       52  52 100 SE5       29.91S VSB<1/4
$$



USA.gov is the U.S. government's official web portal to all federal, state and local government web resources and services.